Location: Leeds
(37.2390°N, 113.3580°W)
Time: 12:47:16
(UTC-06:00)

ISS - All Passes

Search period start: 27 July 2017 00:00
Search period end: 06 August 2017 00:00
Orbit: 400 x 408 km, 51.6° (Epoch: 28 July)

Date Brightness Start Highest point End Pass type
(mag) Time Alt. Az. Time Alt. Az. Time Alt. Az.
27 Jul - 02:56:33 10° NNW 02:59:19 25° NNE 03:02:06 10° E night (unlit)
27 Jul - 04:32:52 10° WNW 04:35:48 31° SW 04:38:43 10° SSE night (unlit)
27 Jul - 19:35:19 10° S 19:37:48 20° SE 19:40:17 10° E daylight
27 Jul - 21:11:06 10° WSW 21:14:06 34° NW 21:17:07 10° NE visible
28 Jul - 02:04:40 10° NNW 02:06:51 16° NNE 02:09:01 10° ENE visible
28 Jul - 03:40:22 10° NW 03:43:37 68° SW 03:46:50 10° SE night (unlit)
28 Jul - 20:18:31 10° WSW 20:21:45 67° NW 20:25:00 10° NE daylight
28 Jul - 21:57:15 10° NW 21:58:44 12° NNW 22:00:14 10° N visible
29 Jul - 01:13:04 10° N 01:14:16 12° NNE 01:15:28 10° NE visible
29 Jul - 02:48:06 10° NW 02:51:19 56° NE 02:54:31 10° ESE night (unlit)
29 Jul - 04:26:05 10° WSW 04:27:26 12° SW 04:28:46 10° SSW night (unlit)
29 Jul - 19:26:18 10° SW 19:29:28 56° SE 19:32:40 10° ENE daylight
29 Jul - 21:03:51 10° WNW 21:06:10 18° NNW 21:08:31 10° NNE daylight
30 Jul - 01:56:00 10° NNW 01:58:56 30° NNE 02:01:51 10° E night (unlit)
30 Jul - 03:32:36 10° WNW 03:35:19 24° SW 03:38:01 10° S night (unlit)
30 Jul - 18:34:30 10° S 18:37:16 26° SE 18:40:03 10° ENE daylight
30 Jul - 20:10:49 10° W 20:13:41 28° NNW 20:16:33 10° NNE daylight
31 Jul - 01:04:02 10° NNW 01:06:27 19° NNE 01:08:51 10° ENE visible
31 Jul - 02:39:56 10° WNW 02:43:06 51° SW 02:46:16 10° SSE night (unlit)
31 Jul - 17:43:32 10° SSE 17:45:08 13° SE 17:46:43 10° E daylight
31 Jul - 19:18:04 10° WSW 19:21:15 52° NW 19:24:27 10° NE daylight
31 Jul - 20:57:17 10° NW 20:58:20 11° NNW 20:59:23 10° N daylight
01 Aug - 00:12:16 10° N 00:13:52 13° NNE 00:15:27 10° NE visible
01 Aug - 01:47:33 10° NW 01:50:48 73° NE 01:54:02 10° SE night (unlit)
01 Aug - 18:25:40 10° SW 18:28:55 74° SE 18:32:09 10° NE daylight
01 Aug - 20:03:37 10° WNW 20:05:43 16° NNW 20:07:47 10° NNE daylight
02 Aug - 00:55:22 10° NW 00:58:25 36° NE 01:01:27 10° ESE visible
02 Aug - 02:32:18 10° W 02:34:41 19° SW 02:37:05 10° S night (unlit)
02 Aug - 17:33:40 10° SSW 17:36:38 33° SE 17:39:36 10° ENE daylight
02 Aug - 19:10:25 10° W 19:13:08 24° NNW 19:15:52 10° NNE daylight
03 Aug - 00:03:18 10° NNW 00:05:55 22° NNE 00:08:32 10° E visible
03 Aug - 01:39:25 10° WNW 01:42:28 39° SW 01:45:32 10° SSE night (unlit)
03 Aug - 16:42:17 10° S 16:44:26 17° SE 16:46:35 10° E daylight
03 Aug - 18:17:33 10° WSW 18:20:39 41° NW 18:23:46 10° NE daylight
03 Aug - 19:57:37 10° NNW 19:57:49 10° NNW 19:58:01 10° NNW daylight
03 Aug - 23:11:24 10° NNW 23:13:19 15° NNE 23:15:14 10° ENE visible
04 Aug - 00:46:55 10° NW 00:50:10 86° SW 00:53:25 10° SE visible
04 Aug - 17:25:00 10° SW 17:28:14 85° NW 17:31:31 10° NE daylight
04 Aug - 19:03:19 10° WNW 19:05:08 14° NNW 19:06:56 10° N daylight
04 Aug - 22:19:58 10° N 22:20:38 10° NNE 22:21:18 10° NNE visible
04 Aug - 23:54:37 10° NW 23:57:46 45° NE 00:00:54 10° ESE visible
05 Aug - 01:32:00 10° W 01:33:57 15° SW 01:35:54 10° SSW night (unlit)
05 Aug - 16:32:47 10° SSW 16:35:54 43° SE 16:39:01 10° ENE daylight
05 Aug - 18:09:57 10° W 18:12:30 21° NNW 18:15:03 10° NNE daylight
05 Aug - 23:02:28 10° NNW 23:05:16 25° NNE 23:08:02 10° E visible
